This is the latest recevied weather packets stored in our database for station/object KJ5FA-10. If no packets are shown the sender has not sent any weather packets the latest 10 day(s).
| Time | Temp. | Humidity | Pressure | Rain* | Wind** | Luminosity | Snow |
|---|---|---|---|---|---|---|---|
| 1777526673 | 16.11° C | 79% | 1017.7 hPa | 0 mm | - | - | - |
| 1777525773 | 16.67° C | 77% | 1017.1 hPa | 0 mm | - | - | - |
| 1777523974 | 17.22° C | 77% | 1016.9 hPa | 0 mm | - | - | - |
| 1777523074 | 17.22° C | 79% | 1017 hPa | 0 mm | - | - | - |
| 1777522174 | 17.78° C | 79% | 1017 hPa | 0 mm | - | - | - |
| 1777521274 | 17.78° C | 79% | 1016.8 hPa | 0 mm | - | - | - |
| 1777519473 | 17.78° C | 79% | 1016.1 hPa | 0 mm | - | - | - |
| 1777517673 | 17.78° C | 79% | 1016.2 hPa | 0 mm | - | - | - |
| 1777516774 | 17.78° C | 79% | 1015.7 hPa | 0 mm | - | - | - |
| 1777515874 | 17.78° C | 81% | 1015.5 hPa | 0 mm | - | - | - |
| 1777514973 | 17.78° C | 81% | 1015.7 hPa | 0 mm | - | - | - |
| 1777513174 | 17.78° C | 83% | 1015.7 hPa | 0 mm | - | - | - |
| 1777512274 | 17.78° C | 82% | 1015.3 hPa | 0 mm | - | - | - |
| 1777511374 | 17.22° C | 83% | 1015.2 hPa | 0 mm | - | - | - |
| 1777510473 | 17.78° C | 82% | 1015.3 hPa | 0 mm | - | - | - |
| 1777508673 | 17.78° C | 81% | 1015.1 hPa | 0 mm | - | - | - |
| 1777507775 | 18.33° C | 79% | 1015.3 hPa | 0 mm | - | - | - |
| 1777506874 | 18.89° C | 76% | 1014.8 hPa | 0 mm | - | - | - |
| 1777505974 | 18.89° C | 75% | 1014.8 hPa | 0 mm | - | - | - |
| 1777505074 | 18.89° C | 75% | 1014.8 hPa | 0 mm | - | - | - |
| 1777504174 | 18.89° C | 74% | 1014.5 hPa | 0 mm | - | - | - |
| 1777503275 | 18.89° C | 73% | 1014.8 hPa | 0 mm | - | - | - |
| 1777502374 | 18.89° C | 72% | 1014.1 hPa | 0 mm | - | - | - |
| 1777501474 | 18.89° C | 72% | 1014 hPa | 0 mm | - | - | - |
| 1777500574 | 18.89° C | 72% | 1013.9 hPa | 0 mm | - | - | - |
* Rain latest hour (hover to see other rain measurements)
** Current wind speed in m/s (hover to see current wind gust speed)